| time (UTC) | temp F | wind direction | speed knots | gust knots | rain 1hr in | rain 24hr in | rain mn in | humidity % | barometer mb |
| 20260506185434 | 71 | 346 | 3.5 | 6.1 | 0.00 | 0.00 | 0.00 | 80 | 1013.7 |
| 20260506184931 | 71 | 15 | 3.5 | 6.1 | 0.00 | 0.00 | 0.00 | 79 | 1013.7 |
| 20260506184428 | 71 | 305 | 6.1 | 7.0 | 0.00 | 0.00 | 0.00 | 80 | 1013.7 |
| 20260506183925 | 70 | 350 | 5.2 | 7.0 | 0.00 | 0.00 | 0.00 | 81 | 1013.6 |
| 20260506183420 | 72 | 311 | 5.2 | 7.0 | 0.00 | 0.00 | 0.00 | 78 | 1013.7 |
| 20260506182918 | 71 | 356 | 1.7 | 2.6 | 0.00 | 0.00 | 0.00 | 79 | 1013.7 |
| 20260506182415 | 70 | 39 | 5.2 | 7.0 | 0.00 | 0.00 | 0.00 | 80 | 1013.7 |
| 20260506181912 | 70 | 332 | 4.3 | 6.1 | 0.00 | 0.00 | 0.00 | 80 | 1013.5 |
| 20260506181410 | 70 | 356 | 3.5 | 3.5 | 0.00 | 0.00 | 0.00 | 80 | 1014.1 |
| 20260506180907 | 70 | 329 | 2.6 | 3.5 | 0.00 | 0.00 | 0.00 | 80 | 1013.7 |
| 20260506180403 | 71 | 338 | 0.0 | 0.9 | 0.00 | 0.00 | 0.00 | 81 | 1013.5 |
| 20260506175900 | 69 | 29 | 3.5 | 3.5 | 0.00 | 0.00 | 0.00 | 81 | 1013.5 |
| 20260506175356 | 68 | 311 | 6.1 | 7.0 | 0.00 | 0.00 | 0.00 | 83 | 1013.2 |
| 20260506174853 | 68 | 65 | 4.3 | 6.1 | 0.00 | 0.00 | 0.00 | 84 | 1013.4 |
| 20260506174351 | 68 | 8 | 3.5 | 3.5 | 0.00 | 0.00 | 0.00 | 83 | 1013.1 |
| 20260506173848 | 68 | 359 | 5.2 | 6.1 | 0.00 | 0.00 | 0.00 | 84 | 1013.1 |
| 20260506173345 | 67 | 76 | 1.7 | 6.1 | 0.00 | 0.00 | 0.00 | 84 | 1013.4 |
| 20260506172842 | 66 | 32 | 3.5 | 5.2 | 0.00 | 0.00 | 0.00 | 85 | 1013.6 |
| 20260506172338 | 67 | 25 | 2.6 | 3.5 | 0.00 | 0.00 | 0.00 | 85 | 1013.7 |
| 20260506171836 | 65 | 323 | 2.6 | 2.6 | 0.00 | 0.00 | 0.00 | 87 | 1013.4 |
| 20260506171333 | 66 | 26 | 1.7 | 2.6 | 0.00 | 0.00 | 0.00 | 86 | 1013.5 |
| 20260506170831 | 65 | 33 | 1.7 | 5.2 | 0.00 | 0.00 | 0.00 | 88 | 1013.6 |
| 20260506170326 | 64 | 27 | 7.0 | 11.3 | 0.00 | 0.00 | 0.00 | 88 | 1013.6 |
| 20260506165825 | 63 | 43 | 3.5 | 5.2 | 0.00 | 0.00 | 0.00 | 89 | 1013.7 |
| 20260506165323 | 64 | 45 | 4.3 | 5.2 | 0.00 | 0.00 | 0.00 | 89 | 1013.9 |
| 20260506164814 | 63 | 44 | 0.9 | 2.6 | 0.00 | 0.00 | 0.00 | 90 | 1014.0 |
| 20260506164310 | 63 | 25 | 3.5 | 7.0 | 0.00 | 0.00 | 0.00 | 89 | 1014.3 |
| 20260506163808 | 63 | 7 | 5.2 | 7.8 | 0.00 | 0.00 | 0.00 | 89 | 1014.7 |
| 20260506163302 | 63 | 351 | 1.7 | 1.7 | 0.00 | 0.00 | 0.00 | 90 | 1014.4 |
| 20260506162758 | 62 | 21 | 0.9 | 2.6 | 0.00 | 0.00 | 0.00 | 92 | 1014.4 |
| 20260506162256 | 61 | 56 | 0.9 | 1.7 | 0.00 | 0.00 | 0.00 | 93 | 1014.8 |
| 20260506161753 | 61 | 25 | 6.1 | 8.7 | 0.00 | 0.00 | 0.00 | 94 | 1014.5 |
| 20260506161250 | 61 | 333 | 4.3 | 13.9 | 0.00 | 0.00 | 0.00 | 95 | 1015.1 |
| 20260506160747 | 61 | 332 | 7.8 | 11.3 | 0.00 | 0.00 | 0.00 | 96 | 1015.5 |
| 20260506160244 | 61 | 331 | 7.0 | 7.8 | 0.00 | 0.00 | 0.00 | 96 | 1015.8 |
| 20260506155743 | 62 | 36 | 5.2 | 9.6 | 0.00 | 0.00 | 0.00 | 95 | 1015.2 |
| 20260506155239 | 62 | 359 | 2.6 | 5.2 | 0.00 | 0.00 | 0.00 | 95 | 1015.3 |
| 20260506153347 | 64 | 321 | 7.8 | 8.7 | 0.00 | 0.00 | 0.00 | 94 | 1014.9 |
| 20260506152844 | 65 | 327 | 7.8 | 9.6 | 0.00 | 0.00 | 0.00 | 94 | 1014.8 |
| 20260506152341 | 65 | 10 | 6.1 | 7.8 | 0.00 | 0.00 | 0.00 | 94 | 1014.5 |
| 20260506151839 | 65 | 319 | 6.1 | 9.6 | 0.00 | 0.00 | 0.00 | 94 | 1014.2 |
| 20260506151336 | 66 | 347 | 6.1 | 9.6 | 0.00 | 0.00 | 0.00 | 93 | 1013.9 |
| 20260506150833 | 66 | 344 | 7.0 | 8.7 | 0.00 | 0.00 | 0.00 | 93 | 1013.9 |
| 20260506150330 | 66 | 294 | 13.0 | 18.2 | 0.00 | 0.00 | 0.00 | 93 | 1013.7 |
| 20260506145827 | 67 | 25 | 5.2 | 7.0 | 0.00 | 0.00 | 0.00 | 92 | 1013.4 |
| 20260506145323 | 68 | 27 | 7.0 | 13.0 | 0.00 | 0.00 | 0.00 | 91 | 1013.1 |
| 20260506144821 | 71 | 322 | 6.1 | 8.7 | 0.00 | 0.00 | 0.00 | 90 | 1012.5 |
| 20260506144317 | 77 | 16 | 6.1 | 11.3 | 0.00 | 0.00 | 0.00 | 86 | 1012.4 |
| 20260506143815 | 77 | 157 | 0.9 | 0.9 | 0.00 | 0.00 | 0.00 | 89 | 1012.2 |
| 20260506104524 | 75 | 158 | 1.7 | 1.7 | 0.00 | 0.00 | 0.00 | 94 | 1010.6 |
| 20260506104016 | 75 | 158 | 1.7 | 1.7 | 0.00 | 0.00 | 0.00 | 94 | 1010.6 |
| 20260506103513 | 75 | 163 | 2.6 | 2.6 | 0.00 | 0.00 | 0.00 | 94 | 1010.6 |
| 20260506072906 | 75 | 178 | 2.6 | 3.5 | 0.00 | 0.00 | 0.00 | 92 | 1009.8 |
| 20260506072403 | 75 | 178 | 2.6 | 3.5 | 0.00 | 0.00 | 0.00 | 92 | 1009.8 |
| 20260506071900 | 75 | 178 | 2.6 | 3.5 | 0.00 | 0.00 | 0.00 | 92 | 1009.8 |
| 20260506062411 | 75 | 210 | 5.2 | 13.0 | 0.00 | 0.00 | 0.00 | 92 | 1009.8 |
| 20260506061906 | 75 | 135 | 9.6 | 13.0 | 0.00 | 0.00 | 0.00 | 92 | 1009.8 |
| 20260506061403 | 75 | 190 | 4.3 | 7.0 | 0.00 | 0.00 | 0.00 | 92 | 1009.6 |
| 20260506060901 | 75 | 189 | 5.2 | 7.8 | 0.00 | 0.00 | 0.00 | 92 | 1009.6 |
| 20260506060359 | 75 | 191 | 7.8 | 9.6 | 0.00 | 0.00 | 0.00 | 92 | 1009.7 |
| 20260506051331 | 76 | 173 | 7.0 | 8.7 | 0.00 | 0.00 | 0.00 | 91 | 1010.0 |
| 20260506050828 | 76 | 146 | 4.3 | 6.1 | 0.00 | 0.00 | 0.00 | 91 | 1009.9 |
| 20260506050325 | 76 | 56 | 5.2 | 8.7 | 0.00 | 0.00 | 0.00 | 91 | 1009.9 |
| 20260506044816 | 76 | 193 | 5.2 | 7.0 | 0.00 | 0.00 | 0.00 | 92 | 1009.8 |
| 20260506044314 | 76 | 140 | 3.5 | 6.1 | 0.00 | 0.00 | 0.00 | 92 | 1009.8 |
| 20260506043810 | 76 | 157 | 5.2 | 9.6 | 0.00 | 0.00 | 0.00 | 92 | 1009.9 |
| 20260506043308 | 76 | 148 | 6.1 | 7.8 | 0.00 | 0.00 | 0.00 | 92 | 1009.8 |
| 20260506042806 | 76 | 157 | 3.5 | 3.5 | 0.00 | 0.00 | 0.00 | 91 | 1009.8 |
| 20260506042305 | 76 | 127 | 4.3 | 5.2 | 0.00 | 0.00 | 0.00 | 91 | 1009.8 |
| 20260506041803 | 76 | 115 | 6.1 | 7.8 | 0.00 | 0.00 | 0.00 | 91 | 1009.8 |
| 20260506041259 | 76 | 206 | 4.3 | 6.1 | 0.00 | 0.00 | 0.00 | 91 | 1009.7 |
| 20260506040757 | 76 | 160 | 3.5 | 5.2 | 0.00 | 0.00 | 0.00 | 91 | 1009.7 |
| 20260506040254 | 76 | 154 | 2.6 | 3.5 | 0.00 | 0.00 | 0.00 | 90 | 1009.7 |
| 20260506035751 | 77 | 138 | 4.3 | 5.2 | 0.00 | 0.00 | 0.00 | 90 | 1009.6 |
| 20260506035248 | 77 | 196 | 6.1 | 8.7 | 0.00 | 0.00 | 0.00 | 89 | 1009.4 |
| 20260506034744 | 77 | 123 | 4.3 | 6.1 | 0.00 | 0.00 | 0.00 | 89 | 1009.5 |
| 20260506034242 | 77 | 131 | 7.8 | 11.3 | 0.00 | 0.00 | 0.00 | 89 | 1009.4 |
| 20260506033739 | 77 | 149 | 5.2 | 7.0 | 0.00 | 0.00 | 0.00 | 89 | 1009.4 |
| 20260506033236 | 77 | 199 | 3.5 | 5.2 | 0.00 | 0.00 | 0.00 | 89 | 1009.4 |
| 20260506032733 | 77 | 150 | 4.3 | 5.2 | 0.00 | 0.00 | 0.00 | 89 | 1009.4 |
| 20260506032229 | 77 | 157 | 3.5 | 5.2 | 0.00 | 0.00 | 0.00 | 89 | 1009.3 |
| 20260506031726 | 77 | 107 | 5.2 | 7.8 | 0.00 | 0.00 | 0.00 | 88 | 1009.1 |
| 20260506031224 | 77 | 94 | 4.3 | 6.1 | 0.00 | 0.00 | 0.00 | 88 | 1009.3 |
| 20260506030722 | 77 | 128 | 1.7 | 1.7 | 0.00 | 0.00 | 0.00 | 88 | 1009.2 |
| 20260506030219 | 77 | 112 | 6.1 | 7.8 | 0.00 | 0.00 | 0.00 | 88 | 1008.9 |
| 20260506025716 | 78 | 132 | 8.7 | 11.3 | 0.00 | 0.00 | 0.00 | 87 | 1009.1 |
| 20260506025212 | 78 | 172 | 4.3 | 5.2 | 0.00 | 0.00 | 0.00 | 87 | 1008.9 |
| 20260506024709 | 78 | 83 | 2.6 | 3.5 | 0.00 | 0.00 | 0.00 | 86 | 1008.9 |
| 20260506024205 | 78 | 138 | 2.6 | 3.5 | 0.00 | 0.00 | 0.00 | 86 | 1008.9 |
| 20260506023702 | 78 | 130 | 1.7 | 2.6 | 0.00 | 0.00 | 0.00 | 85 | 1008.7 |
| 20260506023200 | 79 | 151 | 3.5 | 6.1 | 0.00 | 0.00 | 0.00 | 84 | 1008.5 |
| 20260506022656 | 79 | 188 | 3.5 | 5.2 | 0.00 | 0.00 | 0.00 | 83 | 1008.4 |
| 20260506022154 | 79 | 95 | 1.7 | 2.6 | 0.00 | 0.00 | 0.00 | 83 | 1008.2 |
| 20260506021652 | 79 | 186 | 2.6 | 2.6 | 0.00 | 0.00 | 0.00 | 83 | 1008.2 |
| 20260506021148 | 79 | 117 | 0.9 | 0.9 | 0.00 | 0.00 | 0.00 | 83 | 1008.3 |
| 20260506020640 | 79 | 146 | 5.2 | 6.1 | 0.00 | 0.00 | 0.00 | 82 | 1008.1 |
| 20260506020137 | 79 | 133 | 2.6 | 5.2 | 0.00 | 0.00 | 0.00 | 82 | 1007.9 |
| 20260506015635 | 80 | 117 | 3.5 | 5.2 | 0.00 | 0.00 | 0.00 | 82 | 1007.9 |
| 20260506015132 | 80 | 126 | 3.5 | 5.2 | 0.00 | 0.00 | 0.00 | 82 | 1007.8 |
| 20260506014630 | 80 | 80 | 3.5 | 3.5 | 0.00 | 0.00 | 0.00 | 82 | 1007.8 |
| 20260506014125 | 80 | 134 | 1.7 | 2.6 | 0.00 | 0.00 | 0.00 | 82 | 1007.8 |
| 20260506013623 | 80 | 98 | 4.3 | 6.1 | 0.00 | 0.00 | 0.00 | 81 | 1007.7 |
| 20260506013119 | 80 | 162 | 1.7 | 1.7 | 0.00 | 0.00 | 0.00 | 81 | 1007.8 |
| 20260506012615 | 80 | 106 | 0.9 | 1.7 | 0.00 | 0.00 | 0.00 | 80 | 1007.8 |
| 20260506012112 | 80 | 163 | 1.7 | 2.6 | 0.00 | 0.00 | 0.00 | 80 | 1007.7 |
| 20260506011610 | 80 | 135 | 3.5 | 3.5 | 0.00 | 0.00 | 0.00 | 80 | 1007.6 |
| 20260506011106 | 81 | 175 | 3.5 | 5.2 | 0.00 | 0.00 | 0.00 | 79 | 1007.7 |
| 20260506010600 | 81 | 97 | 2.6 | 3.5 | 0.00 | 0.00 | 0.00 | 79 | 1007.9 |
| 20260506010056 | 81 | 122 | 3.5 | 5.2 | 0.00 | 0.00 | 0.00 | 79 | 1007.6 |
| 20260506005554 | 81 | 111 | 2.6 | 3.5 | 0.00 | 0.00 | 0.00 | 79 | 1007.8 |
| 20260506005049 | 81 | 128 | 5.2 | 6.1 | 0.00 | 0.00 | 0.00 | 78 | 1007.6 |
| 20260506004547 | 81 | 159 | 3.5 | 6.1 | 0.00 | 0.00 | 0.00 | 78 | 1007.5 |
| 20260506004043 | 82 | 129 | 3.5 | 3.5 | 0.00 | 0.00 | 0.00 | 78 | 1007.6 |
| 20260506003540 | 82 | 140 | 2.6 | 3.5 | 0.00 | 0.00 | 0.00 | 77 | 1007.7 |
| 20260506003036 | 82 | 164 | 3.5 | 6.1 | 0.00 | 0.00 | 0.00 | 77 | 1007.6 |
| 20260506002532 | 82 | 145 | 2.6 | 3.5 | 0.00 | 0.00 | 0.00 | 77 | 1007.7 |
| 20260506002028 | 82 | 167 | 7.8 | 8.7 | 0.00 | 0.00 | 0.00 | 77 | 1007.6 |
| 20260506001525 | 82 | 128 | 3.5 | 5.2 | 0.00 | 0.00 | 0.00 | 77 | 1007.6 |
| 20260506001022 | 82 | 125 | 2.6 | 2.6 | 0.00 | 0.00 | 0.00 | 77 | 1007.8 |
| 20260506000520 | 82 | 161 | 5.2 | 7.0 | 0.00 | 0.00 | 0.00 | 76 | 1007.7 |
| 20260506000017 | 82 | 159 | 6.1 | 7.8 | 0.00 | 0.00 | 0.00 | 76 | 1007.5 |
| 20260505235515 | 82 | 168 | 6.1 | 7.0 | 0.00 | 0.00 | 0.00 | 75 | 1007.7 |
| 20260505235011 | 82 | 182 | 3.5 | 5.2 | 0.00 | 0.00 | 0.00 | 76 | 1007.5 |
| 20260505234508 | 82 | 188 | 5.2 | 7.8 | 0.00 | 0.00 | 0.00 | 76 | 1007.6 |
| 20260505234005 | 82 | 170 | 5.2 | 6.1 | 0.00 | 0.00 | 0.00 | 75 | 1007.3 |
| 20260505233503 | 82 | 125 | 4.3 | 7.0 | 0.00 | 0.00 | 0.00 | 76 | 1007.3 |
| 20260505233000 | 82 | 138 | 7.0 | 7.8 | 0.00 | 0.00 | 0.00 | 75 | 1007.2 |
| 20260505232458 | 82 | 129 | 7.8 | 11.3 | 0.00 | 0.00 | 0.00 | 75 | 1007.1 |
| 20260505231954 | 83 | 72 | 3.5 | 5.2 | 0.00 | 0.00 | 0.00 | 75 | 1007.0 |
| 20260505231451 | 83 | 181 | 3.5 | 7.0 | 0.00 | 0.00 | 0.00 | 74 | 1007.3 |
| 20260505230949 | 83 | 183 | 6.1 | 7.0 | 0.00 | 0.00 | 0.00 | 73 | 1007.4 |
| 20260505230442 | 83 | 204 | 7.8 | 8.7 | 0.00 | 0.00 | 0.00 | 74 | 1007.2 |
| 20260505225938 | 83 | 169 | 6.1 | 8.7 | 0.00 | 0.00 | 0.00 | 75 | 1007.1 |
| 20260505225435 | 84 | 107 | 7.0 | 8.7 | 0.00 | 0.00 | 0.00 | 74 | 1007.1 |
| 20260505224931 | 83 | 197 | 3.5 | 3.5 | 0.00 | 0.00 | 0.00 | 73 | 1007.0 |
| 20260505224428 | 83 | 109 | 3.5 | 6.1 | 0.00 | 0.00 | 0.00 | 74 | 1007.1 |
| 20260505223925 | 83 | 150 | 3.5 | 3.5 | 0.00 | 0.00 | 0.00 | 73 | 1007.2 |
| 20260505223422 | 83 | 160 | 6.1 | 8.7 | 0.00 | 0.00 | 0.00 | 74 | 1007.1 |
| 20260505222918 | 83 | 185 | 7.0 | 7.8 | 0.00 | 0.00 | 0.00 | 74 | 1007.1 |
| 20260505222415 | 83 | 126 | 5.2 | 7.8 | 0.00 | 0.00 | 0.00 | 74 | 1006.9 |
| 20260505221910 | 83 | 166 | 6.1 | 8.7 | 0.00 | 0.00 | 0.00 | 74 | 1006.8 |
| 20260505221408 | 83 | 114 | 7.8 | 8.7 | 0.00 | 0.00 | 0.00 | 74 | 1007.2 |
| 20260505220905 | 83 | 101 | 7.0 | 8.7 | 0.00 | 0.00 | 0.00 | 74 | 1007.1 |
| 20260505220402 | 83 | 189 | 9.6 | 12.2 | 0.00 | 0.00 | 0.00 | 74 | 1007.2 |
| 20260505215900 | 84 | 142 | 7.8 | 9.6 | 0.00 | 0.00 | 0.00 | 71 | 1007.4 |
| 20260505215357 | 84 | 164 | 3.5 | 5.2 | 0.00 | 0.00 | 0.00 | 72 | 1007.4 |
| 20260505214855 | 84 | 201 | 7.8 | 7.8 | 0.00 | 0.00 | 0.00 | 71 | 1007.3 |
| 20260505214352 | 83 | 159 | 10.4 | 12.2 | 0.00 | 0.00 | 0.00 | 71 | 1007.6 |
| 20260505213849 | 83 | 174 | 8.7 | 8.7 | 0.00 | 0.00 | 0.00 | 72 | 1007.7 |
| 20260505213347 | 83 | 188 | 7.8 | 8.7 | 0.00 | 0.00 | 0.00 | 72 | 1007.4 |
| 20260505212843 | 83 | 207 | 7.8 | 9.6 | 0.00 | 0.00 | 0.00 | 72 | 1007.6 |
| 20260505212340 | 83 | 187 | 6.1 | 7.8 | 0.00 | 0.00 | 0.00 | 72 | 1007.6 |
| 20260505211836 | 83 | 172 | 9.6 | 11.3 | 0.00 | 0.00 | 0.00 | 72 | 1007.8 |
| 20260505211334 | 82 | 143 | 5.2 | 7.0 | 0.00 | 0.00 | 0.00 | 74 | 1007.9 |
| 20260505210830 | 82 | 183 | 9.6 | 12.2 | 0.00 | 0.00 | 0.00 | 74 | 1007.7 |
| 20260505210327 | 82 | 99 | 9.6 | 11.3 | 0.00 | 0.00 | 0.00 | 73 | 1007.8 |
| 20260505205824 | 82 | 101 | 7.0 | 9.6 | 0.00 | 0.00 | 0.00 | 75 | 1008.0 |
| 20260505205323 | 82 | 188 | 9.6 | 13.0 | 0.00 | 0.00 | 0.00 | 74 | 1008.1 |
| 20260505204819 | 82 | 147 | 10.4 | 12.2 | 0.00 | 0.00 | 0.00 | 74 | 1008.0 |
| 20260505204317 | 81 | 171 | 5.2 | 7.0 | 0.00 | 0.00 | 0.00 | 76 | 1007.9 |
| 20260505203814 | 81 | 142 | 9.6 | 11.3 | 0.00 | 0.00 | 0.00 | 75 | 1008.2 |
| 20260505203311 | 82 | 153 | 8.7 | 13.0 | 0.00 | 0.00 | 0.00 | 76 | 1008.2 |
| 20260505202807 | 82 | 115 | 5.2 | 7.8 | 0.00 | 0.00 | 0.00 | 75 | 1008.5 |
| 20260505202306 | 81 | 114 | 6.1 | 12.2 | 0.00 | 0.00 | 0.00 | 76 | 1008.4 |
| 20260505201800 | 82 | 194 | 8.7 | 9.6 | 0.00 | 0.00 | 0.00 | 76 | 1008.7 |
| 20260505201257 | 82 | 90 | 6.1 | 8.7 | 0.00 | 0.00 | 0.00 | 75 | 1008.8 |
| 20260505200756 | 82 | 146 | 7.0 | 8.7 | 0.00 | 0.00 | 0.00 | 76 | 1008.7 |
| 20260505200252 | 81 | 169 | 6.1 | 7.8 | 0.00 | 0.00 | 0.00 | 76 | 1008.5 |
| 20260505195747 | 82 | 180 | 7.8 | 13.9 | 0.00 | 0.00 | 0.00 | 74 | 1008.9 |
| 20260505195245 | 82 | 232 | 7.8 | 9.6 | 0.00 | 0.00 | 0.00 | 76 | 1009.0 |
| 20260505194742 | 81 | 153 | 7.0 | 8.7 | 0.00 | 0.00 | 0.00 | 77 | 1008.9 |
| 20260505194239 | 81 | 130 | 4.3 | 7.0 | 0.00 | 0.00 | 0.00 | 77 | 1009.2 |
| 20260505193734 | 81 | 199 | 8.7 | 8.7 | 0.00 | 0.00 | 0.00 | 76 | 1009.4 |
| 20260505193232 | 80 | 139 | 7.0 | 8.7 | 0.00 | 0.00 | 0.00 | 77 | 1009.4 |
| 20260505192730 | 80 | 204 | 8.7 | 11.3 | 0.00 | 0.00 | 0.00 | 77 | 1009.1 |
| 20260505192228 | 80 | 156 | 7.0 | 9.6 | 0.00 | 0.00 | 0.00 | 78 | 1009.2 |
| 20260505191726 | 79 | 201 | 7.8 | 8.7 | 0.00 | 0.00 | 0.00 | 79 | 1009.2 |
| 20260505191224 | 79 | 190 | 9.6 | 11.3 | 0.00 | 0.00 | 0.00 | 78 | 1009.5 |
| 20260505190720 | 79 | 175 | 4.3 | 5.2 | 0.00 | 0.00 | 0.00 | 80 | 1009.4 |
| 20260505190220 | 78 | 162 | 4.3 | 6.1 | 0.00 | 0.00 | 0.00 | 79 | 1009.5 |